�N����,����,�~����,�C��,���x,�C��,����,���ϕ���,�ő�u�ԕ���,�ő厞����,���˗�,�I�_���x,�n�����x,�ő啗���N��,DTYPE
"19/09/16","00:10",0.0,23.1,83.2,1000.0,272.4,1.0,1.7,326.7,0.00,20.1,24.9,"00:04:08",1
"19/09/16","00:20",0.0,23.0,83.5,1000.0,273.1,1.1,1.7,237.1,0.00,20.1,24.7,"00:18:48",1
"19/09/16","00:30",0.0,22.8,84.0,1000.0,317.5,1.2,1.8,336.9,0.00,20.0,24.6,"00:20:08",1
"19/09/16","00:40",0.0,22.5,84.9,999.8,328.0,1.3,1.8,332.9,0.00,19.9,24.6,"00:31:44",1
"19/09/16","00:50",0.0,22.1,85.7,999.6,302.2,0.7,2.1,339.2,0.00,19.6,24.7,"00:40:02",1
"19/09/16","01:00",0.0,21.8,87.0,999.6,325.0,1.3,2.5,326.1,0.00,19.6,24.5,"00:50:24",1
"19/09/16","01:10",0.0,21.8,88.0,999.3,327.7,1.2,1.9,335.1,0.00,19.8,24.7,"01:00:16",1
"19/09/16","01:20",0.0,21.7,88.5,999.6,319.6,1.1,1.6,321.7,0.00,19.8,24.6,"01:18:08",1
"19/09/16","01:30",0.0,21.5,89.1,999.3,307.4,0.6,1.1,316.1,0.00,19.7,24.6,"01:20:08",1
"19/09/16","01:40",0.0,21.6,90.2,999.1,349.3,0.8,1.7,317.4,0.00,20.0,24.4,"01:38:16",1
"19/09/16","01:50",0.0,21.4,90.0,999.3,308.8,0.8,1.9,313.2,0.00,19.7,24.5,"01:44:08",1
"19/09/16","02:00",0.0,21.4,90.6,999.3,295.5,0.7,1.2,317.7,0.00,19.8,24.4,"01:58:56",1
"19/09/16","02:10",0.0,21.7,90.7,999.1,286.7,1.2,2.4,337.8,0.00,20.2,24.5,"02:09:56",1
"19/09/16","02:20",0.0,21.7,90.5,999.3,324.7,1.3,2.1,328.5,0.00,20.1,24.3,"02:10:24",1
"19/09/16","02:30",0.0,21.6,91.0,999.1,313.7,1.1,2.0,328.3,0.00,20.1,24.3,"02:27:44",1
"19/09/16","02:40",0.0,21.5,91.0,999.3,320.5,1.3,1.9,331.3,0.00,20.0,24.3,"02:39:04",1
"19/09/16","02:50",0.0,21.7,91.8,999.3,316.0,1.0,2.0,342.6,0.00,20.3,24.2,"02:48:40",1
"19/09/16","03:00",0.0,22.0,91.3,998.9,300.3,1.1,1.7,317.0,0.00,20.6,24.3,"02:58:48",1
"19/09/16","03:10",0.0,22.0,90.7,999.1,310.4,0.8,1.4,314.3,0.00,20.4,24.3,"03:08:40",1
"19/09/16","03:20",0.0,21.8,91.1,999.3,318.7,1.2,1.9,313.9,0.00,20.3,24.2,"03:14:32",1
"19/09/16","03:30",0.0,21.8,91.6,999.1,314.1,1.0,1.6,350.0,0.00,20.4,24.4,"03:24:16",1
"19/09/16","03:40",0.0,22.3,91.3,999.1,313.4,1.3,2.4,332.9,0.00,20.9,24.2,"03:30:56",1
"19/09/16","03:50",0.0,22.7,90.6,998.9,306.5,1.5,2.9,316.4,0.00,21.1,24.0,"03:41:28",1
"19/09/16","04:00",0.0,22.9,89.8,998.9,274.8,1.1,2.2,246.8,0.00,21.2,24.5,"03:59:28",1
"19/09/16","04:10",0.0,22.9,89.5,998.9,324.3,1.5,2.9,344.8,0.00,21.1,24.2,"04:09:36",1
"19/09/16","04:20",0.0,23.2,88.8,998.9,317.8,1.6,2.6,337.5,0.00,21.3,24.2,"04:10:40",1
"19/09/16","04:30",0.0,23.5,87.5,998.9,326.9,2.1,3.9,331.7,0.00,21.3,24.2,"04:28:40",1
"19/09/16","04:40",0.0,24.0,85.3,998.6,317.9,2.0,4.5,347.7,0.00,21.4,24.2,"04:36:24",1
"19/09/16","04:50",0.0,24.2,83.4,998.6,323.7,2.2,4.4,339.5,0.00,21.2,24.2,"04:42:24",1
"19/09/16","05:00",0.0,24.4,81.4,998.9,327.2,2.1,5.1,341.2,0.00,21.0,24.3,"04:52:00",1
"19/09/16","05:10",0.0,24.6,79.6,998.4,332.6,2.1,4.5,354.8,0.00,20.9,24.4,"05:05:44",1
"19/09/16","05:20",0.0,24.8,78.0,998.2,328.1,2.6,4.5,325.8,0.00,20.7,24.2,"05:19:04",1
"19/09/16","05:30",0.0,25.0,76.8,998.2,315.8,3.0,5.7,349.7,0.00,20.7,24.2,"05:24:56",1
"19/09/16","05:40",0.0,25.1,76.3,998.2,327.8,3.0,4.9,343.8,0.00,20.7,24.2,"05:36:00",1
"19/09/16","05:50",0.0,25.0,76.3,998.4,320.8,2.0,4.3,316.5,0.00,20.6,24.2,"05:49:28",1
"19/09/16","06:00",0.0,25.0,76.3,997.9,318.6,2.2,4.8,354.6,0.00,20.6,24.1,"05:52:48",1
"19/09/16","06:10",0.0,24.8,76.7,998.2,327.5,1.3,3.3,334.6,0.00,20.5,24.2,"06:08:48",1
"19/09/16","06:20",0.0,24.3,77.9,998.2,316.5,1.1,2.0,339.6,0.00,20.2,24.0,"06:18:24",1
"19/09/16","06:30",0.0,24.0,79.8,998.4,316.6,1.2,2.4,339.4,0.00,20.3,24.0,"06:22:48",1
"19/09/16","06:40",0.0,24.1,80.3,998.2,321.4,1.7,3.1,334.6,0.00,20.5,24.0,"06:33:36",1
"19/09/16","06:50",0.0,24.1,80.2,998.2,305.0,1.0,1.8,317.8,0.00,20.5,24.1,"06:48:48",1
"19/09/16","07:00",0.0,24.2,80.7,998.4,327.6,1.5,2.7,338.8,0.00,20.7,24.2,"06:55:36",1
"19/09/16","07:10",0.0,24.6,80.3,998.2,326.9,1.3,2.9,330.0,0.02,21.0,24.1,"07:06:40",1
"19/09/16","07:20",0.0,24.9,79.9,997.9,324.4,1.5,2.8,342.6,0.03,21.2,24.2,"07:16:16",1
"19/09/16","07:30",0.0,25.2,78.7,998.2,312.8,1.2,3.2,330.8,0.04,21.3,24.1,"07:27:04",1
"19/09/16","07:40",0.0,25.7,77.4,997.9,290.7,1.1,2.6,322.3,0.06,21.5,24.2,"07:32:48",1
"19/09/16","07:50",0.0,26.1,75.6,998.2,292.6,1.0,3.2,344.9,0.08,21.5,24.2,"07:47:52",1
"19/09/16","08:00",0.0,26.5,74.0,997.7,312.6,1.2,2.8,325.3,0.11,21.5,24.4,"07:52:32",1
"19/09/16","08:10",0.0,26.6,73.1,997.4,315.0,1.5,3.3,230.9,0.13,21.4,24.4,"08:01:28",1
"19/09/16","08:20",0.0,26.6,72.9,997.7,321.3,1.8,4.8,347.1,0.15,21.4,24.5,"08:19:52",1
"19/09/16","08:30",0.0,27.3,72.3,997.2,312.3,1.2,3.3,344.0,0.18,21.9,24.8,"08:28:48",1
"19/09/16","08:40",0.0,27.3,71.5,997.2,306.8,1.3,4.9,343.3,0.21,21.7,24.9,"08:38:08",1
"19/09/16","08:50",0.0,27.7,69.8,996.7,344.1,2.0,5.5,357.9,0.24,21.7,24.9,"08:48:56",1
"19/09/16","09:00",0.0,27.7,68.5,996.7,313.1,1.6,4.3,320.3,0.28,21.4,25.3,"08:56:16",1
"19/09/16","09:10",0.0,28.0,69.1,997.2,354.0,2.2,4.7,334.3,0.27,21.8,25.6,"09:03:36",1
"19/09/16","09:20",0.0,27.9,66.9,997.0,333.9,1.8,5.0,347.5,0.31,21.2,25.7,"09:18:32",1
"19/09/16","09:30",0.0,28.1,67.6,997.2,345.3,2.1,5.6,43.8,0.31,21.6,25.8,"09:22:24",1
"19/09/16","09:40",0.0,28.0,67.0,997.2,345.3,2.8,7.1,332.4,0.34,21.3,26.0,"09:39:52",1
"19/09/16","09:50",0.0,28.1,66.0,997.2,349.8,2.5,5.1,341.7,0.35,21.2,26.2,"09:42:48",1
"19/09/16","10:00",0.0,28.2,66.2,997.4,354.2,2.3,6.3,349.5,0.31,21.3,26.4,"09:53:12",1
"19/09/16","10:10",0.0,27.7,67.3,997.2,344.5,2.6,5.7,346.3,0.25,21.1,26.6,"10:09:28",1
"19/09/16","10:20",0.0,27.0,69.2,997.0,340.6,3.4,7.7,339.3,0.14,20.9,26.5,"10:18:32",1
"19/09/16","10:30",0.0,27.5,68.2,996.5,342.4,2.7,7.9,323.8,0.22,21.2,26.4,"10:25:04",1
"19/09/16","10:40",0.0,28.4,66.3,997.0,338.6,3.6,7.2,348.4,0.38,21.5,26.6,"10:30:48",1
"19/09/16","10:50",0.0,28.0,66.4,996.7,345.4,3.6,7.1,326.9,0.25,21.2,26.6,"10:44:56",1
"19/09/16","11:00",0.0,28.2,66.4,996.7,354.7,2.7,5.7,357.4,0.20,21.4,26.5,"10:50:24",1
"19/09/16","11:10",0.0,28.6,65.1,996.7,347.2,1.8,6.0,317.8,0.30,21.4,26.5,"11:09:12",1
"19/09/16","11:20",0.0,28.6,66.0,997.0,342.7,2.5,5.2,349.2,0.32,21.7,26.7,"11:17:04",1
"19/09/16","11:30",0.0,27.8,66.5,997.2,342.8,3.0,6.2,327.4,0.33,21.0,26.9,"11:27:36",1
"19/09/16","11:40",0.0,28.3,66.8,997.2,352.0,3.2,6.5,315.0,0.33,21.6,27.0,"11:39:36",1
"19/09/16","11:50",0.0,27.9,66.6,996.7,352.7,2.8,5.7,340.7,0.22,21.1,26.9,"11:44:56",1
"19/09/16","12:00",0.0,27.9,67.0,996.5,342.3,3.5,7.5,335.8,0.24,21.2,27.1,"11:56:16",1
"19/09/16","12:10",0.0,28.0,65.4,996.5,354.1,3.4,8.3,346.4,0.21,20.9,27.0,"12:00:16",1
"19/09/16","12:20",0.0,27.8,64.8,996.5,349.1,4.0,9.1,340.5,0.22,20.6,27.1,"12:19:44",1
"19/09/16","12:30",0.0,28.7,62.9,996.0,346.9,4.5,9.1,333.2,0.43,21.0,27.1,"12:24:48",1
"19/09/16","12:40",0.0,29.1,62.7,996.3,341.6,4.2,12.8,335.7,0.53,21.3,27.2,"12:36:16",1
"19/09/16","12:50",0.0,29.3,61.5,996.7,355.3,3.6,8.3,321.2,0.57,21.2,27.4,"12:49:52",1
"19/09/16","13:00",0.0,29.1,61.6,996.7,350.3,4.0,8.8,324.8,0.58,21.0,27.5,"12:53:52",1
"19/09/16","13:10",0.0,28.9,61.0,997.2,352.8,3.5,7.3,324.8,0.49,20.7,27.6,"13:04:40",1
"19/09/16","13:20",0.0,29.1,61.5,996.7,354.7,3.2,7.0,359.0,0.56,21.0,27.9,"13:13:44",1
"19/09/16","13:30",0.0,28.9,63.2,997.0,348.1,2.7,5.4,333.4,0.40,21.2,27.7,"13:24:24",1
"19/09/16","13:40",0.0,28.8,62.2,996.7,358.0,3.2,6.6,330.7,0.35,20.9,27.9,"13:39:44",1
"19/09/16","13:50",0.0,28.8,63.1,997.0,350.2,3.6,7.4,336.2,0.54,21.1,28.1,"13:44:40",1
"19/09/16","14:00",0.0,28.6,63.7,996.7,343.9,3.4,9.0,339.6,0.49,21.1,28.2,"13:53:44",1
"19/09/16","14:10",0.0,28.7,62.0,996.7,349.1,3.2,5.6,337.2,0.48,20.7,28.3,"14:03:12",1
"19/09/16","14:20",0.0,28.4,62.9,997.0,349.7,2.8,6.5,325.4,0.43,20.7,28.3,"14:16:24",1
"19/09/16","14:30",0.0,28.5,61.5,997.2,354.6,3.0,5.9,326.6,0.41,20.4,28.4,"14:26:32",1
"19/09/16","14:40",0.0,27.5,63.5,996.5,358.2,3.1,8.5,22.9,0.12,20.0,28.5,"14:36:56",1
"19/09/16","14:50",0.0,27.3,63.8,996.5,351.6,2.7,5.5,10.5,0.11,19.9,28.4,"14:45:36",1
"19/09/16","15:00",0.0,27.3,63.3,996.0,343.9,2.8,7.9,339.0,0.10,19.8,28.3,"14:51:28",1
"19/09/16","15:10",0.0,27.4,63.3,996.0,351.0,2.8,5.9,37.3,0.14,19.9,28.1,"15:05:28",1
"19/09/16","15:20",0.0,27.4,64.7,996.7,352.7,2.8,5.8,346.0,0.14,20.2,28.0,"15:17:12",1
"19/09/16","15:30",0.0,27.2,65.4,996.3,350.9,2.8,6.8,350.4,0.12,20.2,27.9,"15:22:56",1
"19/09/16","15:40",0.0,27.3,64.8,996.3,348.8,2.3,5.2,336.7,0.07,20.1,28.0,"15:36:24",1
"19/09/16","15:50",0.0,27.0,66.0,996.7,341.5,2.7,5.5,328.0,0.07,20.1,27.6,"15:42:24",1
"19/09/16","16:00",0.0,27.5,64.4,996.5,335.8,2.7,4.4,326.5,0.16,20.2,27.5,"15:50:08",1
"19/09/16","16:10",0.0,27.3,64.9,997.0,339.8,2.5,5.4,332.6,0.12,20.2,27.6,"16:02:16",1
"19/09/16","16:20",0.0,27.1,66.1,996.7,335.8,3.2,10.3,340.0,0.15,20.3,27.5,"16:13:04",1
"19/09/16","16:30",0.0,27.6,65.2,996.5,337.7,2.0,4.5,351.9,0.20,20.5,27.3,"16:20:40",1
"19/09/16","16:40",0.0,27.6,63.9,996.7,342.9,2.2,4.3,313.2,0.19,20.2,27.3,"16:39:04",1
"19/09/16","16:50",0.0,27.6,63.6,996.3,346.2,2.1,4.8,353.3,0.16,20.1,27.5,"16:44:40",1
"19/09/16","17:00",0.0,27.7,63.4,996.7,328.4,1.7,3.6,322.3,0.13,20.2,27.2,"16:54:48",1
"19/09/16","17:10",0.0,27.5,63.6,997.0,322.2,1.2,2.5,338.9,0.08,20.0,27.3,"17:00:56",1
"19/09/16","17:20",0.0,26.9,64.4,997.0,324.8,2.1,5.4,330.3,0.04,19.7,27.3,"17:10:24",1
"19/09/16","17:30",0.0,26.7,65.1,997.2,335.8,2.3,4.3,339.6,0.03,19.6,26.7,"17:23:28",1
"19/09/16","17:40",0.0,26.4,66.2,997.4,326.4,2.3,5.2,327.5,0.03,19.6,27.0,"17:39:44",1
"19/09/16","17:50",0.0,26.4,66.2,997.2,330.9,2.2,6.3,339.7,0.02,19.6,26.8,"17:46:16",1
"19/09/16","18:00",0.0,26.4,66.9,997.4,313.5,1.3,3.3,344.0,0.01,19.8,26.7,"17:57:20",1
"19/09/16","18:10",0.0,25.9,68.1,997.7,336.2,2.3,4.4,347.9,0.00,19.6,26.6,"18:04:16",1
"19/09/16","18:20",0.0,25.6,69.1,997.4,316.6,1.6,3.6,341.4,0.00,19.6,26.5,"18:15:44",1
"19/09/16","18:30",0.0,25.5,69.7,997.2,328.3,1.8,4.3,318.7,0.00,19.6,26.5,"18:21:44",1
"19/09/16","18:40",0.0,25.4,70.1,997.7,289.8,1.8,4.9,234.0,0.00,19.6,26.3,"18:34:48",1
"19/09/16","18:50",0.0,25.3,70.4,997.9,297.8,1.1,4.4,323.9,0.00,19.6,26.2,"18:45:04",1
"19/09/16","19:00",0.0,25.2,70.8,998.2,301.0,2.0,5.4,307.0,0.00,19.6,26.1,"18:58:00",1
"19/09/16","19:10",0.0,25.2,70.3,998.2,315.0,1.5,5.4,354.4,0.00,19.4,25.9,"19:00:56",1
"19/09/16","19:20",0.0,25.2,70.6,998.2,307.2,1.6,3.7,342.3,0.00,19.5,26.0,"19:15:52",1
"19/09/16","19:30",0.0,25.1,71.2,998.4,338.1,1.1,2.6,349.4,0.00,19.6,25.8,"19:22:48",1
"19/09/16","19:40",0.0,25.1,71.1,998.9,242.3,1.3,2.9,230.5,0.00,19.5,25.8,"19:39:04",1
"19/09/16","19:50",0.0,25.1,71.1,998.9,260.5,1.3,4.1,200.1,0.00,19.5,25.9,"19:45:20",1
"19/09/16","20:00",0.0,24.9,71.5,998.6,283.8,1.1,2.6,339.3,0.00,19.4,25.7,"19:54:56",1
"19/09/16","20:10",0.0,25.1,71.1,998.6,280.4,0.8,2.4,238.9,0.00,19.5,25.7,"20:03:52",1
"19/09/16","20:20",0.0,24.7,72.1,999.1,311.8,1.0,2.5,343.1,0.00,19.4,25.6,"20:15:44",1
"19/09/16","20:30",0.0,24.3,73.7,999.1,335.1,1.0,2.4,339.1,0.00,19.3,25.5,"20:21:04",1
"19/09/16","20:40",0.0,24.4,75.4,998.9,331.5,1.3,4.0,349.8,0.00,19.8,25.4,"20:39:04",1
"19/09/16","20:50",0.0,24.6,74.4,999.3,324.0,1.0,3.2,338.3,0.00,19.8,25.3,"20:40:16",1
"19/09/16","21:00",0.0,24.2,74.5,999.3,291.4,0.6,1.6,329.4,0.00,19.4,25.3,"20:51:28",1
"19/09/16","21:10",0.0,23.8,77.3,999.1,303.6,1.1,2.0,334.6,0.00,19.6,25.3,"21:08:32",1
"19/09/16","21:20",0.0,23.7,77.6,999.6,328.2,1.0,1.6,354.1,0.00,19.6,25.1,"21:11:28",1
"19/09/16","21:30",0.0,23.3,79.5,1000.0,332.9,0.5,2.0,341.6,0.00,19.6,25.1,"21:20:02",1
"19/09/16","21:40",0.0,22.8,80.9,999.8,317.7,1.0,2.7,346.6,0.00,19.4,25.1,"21:31:04",1
"19/09/16","21:50",0.0,22.5,82.8,1000.0,323.1,1.0,1.4,320.7,0.00,19.5,25.0,"21:49:04",1
"19/09/16","22:00",0.0,22.4,84.2,999.6,325.3,1.1,2.0,336.6,0.00,19.6,25.0,"21:58:24",1
"19/09/16","22:10",0.0,22.6,83.8,1000.0,328.9,1.0,1.8,321.4,0.00,19.8,25.1,"22:00:40",1
"19/09/16","22:20",0.0,22.5,84.6,1000.0,311.4,0.8,1.2,313.3,0.00,19.8,24.6,"22:12:24",1
"19/09/16","22:30",0.0,22.2,85.1,999.8,319.4,1.3,1.9,339.3,0.00,19.6,24.9,"22:20:16",1
"19/09/16","22:40",0.0,22.4,86.0,1000.0,320.6,1.6,3.2,324.2,0.00,20.0,24.6,"22:38:16",1
"19/09/16","22:50",0.0,22.8,85.2,1000.3,316.2,1.7,3.1,332.5,0.00,20.2,24.6,"22:47:36",1
"19/09/16","23:00",0.0,23.0,84.3,1000.3,311.7,1.5,2.0,304.0,0.00,20.2,24.3,"22:58:16",1
"19/09/16","23:10",0.0,23.1,83.8,999.8,308.8,1.2,2.5,328.9,0.00,20.3,24.6,"23:02:56",1
"19/09/16","23:20",0.0,23.0,83.1,1000.0,336.9,1.1,2.9,334.7,0.00,20.0,24.5,"23:11:36",1
"19/09/16","23:30",0.0,22.7,84.2,1000.5,328.6,0.8,1.8,355.8,0.00,19.9,24.5,"23:22:00",1
"19/09/16","23:40",0.0,22.7,84.3,1000.0,332.4,1.2,2.4,333.2,0.00,20.0,24.3,"23:32:00",1
"19/09/16","23:50",0.0,22.8,84.6,999.8,330.9,1.6,2.7,337.6,0.00,20.1,24.2,"23:44:40",1
"19/09/16","24:00",0.0,23.0,84.2,1000.3,323.3,1.8,3.9,337.9,0.00,20.2,24.1,"23:55:52",1
